Shawnee, OK

12:03 PM CDT on March 28, 2017 (GMT -0500)
Shawnee Municipal

Weather History for KSNL - December, 2011

Change the Weather History Date:

Tuesday, December 20, 2011

  Actual Average (KTIK) Record (KTIK)
Temperature  
Mean Temperature 43 °F -  
Max Temperature 51 °F 46 °F 74 °F (2010)
Min Temperature 35 °F 26 °F 14 °F (1996)
Degree Days  
Heating Degree Days 22    
Moisture  
Dew Point 42 °F    
Average Humidity 93    
Maximum Humidity 100    
Minimum Humidity 76    
Precipitation  
Precipitation 0.00 in - - ()
Sea Level Pressure  
Sea Level Pressure 29.85 in    
Wind  
Wind Speed 8 mph (SW)    
Max Wind Speed 14 mph    
Max Gust Speed 22 mph    
Visibility 7 miles    
Events Fog    
Averages and records for this station are not official NWS values.
T = Trace of Precipitation, MM = Missing Value Source: NWS Daily Summary

Daily Weather History Graph

Daily Weather History Graph

Search for Another Location

Airport or City:

Trip Planner

Search our weather history database for the weather conditions in past years. The results will help you decide how hot, cold, wet, or windy it might be!

Date:

Astronomy

Dec. 20, 2011 Rise Set
Actual Time 7:32 AM CST 5:18 PM CST
Civil Twilight 7:03 AM CST 5:46 PM CST
Nautical Twilight 6:31 AM CST 6:18 PM CST
Astronomical Twilight 6:00 AM CST 6:49 PM CST
Moon 2:59 AM CST (12/20) 1:51 PM CST (12/20)
Length of Visible Light 10h 42m
Length of Day
9h 46m
Waning Crescent, 21% of the Moon is Illuminated
Dec 20
Waning Crescent
Dec 24
New
Jan 1
First Quarter
Jan 9
Full
Jan 16
Last Quarter

Hourly Weather History & Observations

Time (CST) Temp. Windchill Dew Point Humidity Pressure Visibility Wind Dir Wind Speed Gust Speed Precip Events Conditions
12:15 AM 51.8 °F - 51.8 °F 100% 29.84 in 1.0 mi ESE 6.9 mph - N/A   Overcast
12:35 AM 51.8 °F - 51.8 °F 100% 29.84 in 0.8 mi East 5.8 mph - N/A   Overcast
12:55 AM 51.8 °F - 51.8 °F 100% 29.83 in 3.0 mi East 6.9 mph - N/A   Overcast
1:15 AM 50.0 °F - 50.0 °F 100% 29.82 in 0.5 mi East 5.8 mph - N/A Fog Fog
1:35 AM 50.0 °F - 50.0 °F 100% 29.82 in 0.2 mi East 5.8 mph - N/A   Drizzle
1:55 AM 50.0 °F - 50.0 °F 100% 29.82 in 0.5 mi ENE 6.9 mph - N/A   Drizzle
2:35 AM 50.0 °F - 48.2 °F 94% 29.82 in 0.5 mi East 5.8 mph - N/A Fog Fog
2:55 AM 50.0 °F - 48.2 °F 94% 29.82 in 0.5 mi ESE 6.9 mph - N/A Fog Fog
3:15 AM 50.0 °F - 50.0 °F 100% 29.81 in 0.5 mi SE 4.6 mph - N/A Fog Fog
3:35 AM 50.0 °F - 50.0 °F 100% 29.81 in 3.0 mi SSE 5.8 mph - N/A   Overcast
3:55 AM 50.0 °F - 48.2 °F 94% 29.81 in 1.8 mi SE 4.6 mph - N/A   Overcast
4:15 AM 50.0 °F - 48.2 °F 94% 29.80 in 1.8 mi SSE 3.5 mph - N/A   Overcast
4:35 AM 50.0 °F - 48.2 °F 94% 29.79 in 1.0 mi SE 3.5 mph - N/A   Overcast
4:55 AM 50.0 °F - 48.2 °F 94% 29.79 in 1.8 mi SSE 4.6 mph - N/A   Overcast
5:15 AM 50.0 °F - 50.0 °F 100% 29.79 in 5.0 mi SSE 5.8 mph - N/A   Overcast
5:35 AM 50.0 °F - 48.2 °F 94% 29.79 in 7.0 mi SSE 3.5 mph - N/A   Overcast
5:55 AM 50.0 °F - 50.0 °F 100% 29.79 in 7.0 mi SSE 8.1 mph - N/A   Overcast
6:15 AM 50.0 °F - 48.2 °F 94% 29.79 in 7.0 mi SSE 8.1 mph - N/A   Mostly Cloudy
6:35 AM 50.0 °F - 48.2 °F 94% 29.79 in 10.0 mi South 4.6 mph - N/A   Mostly Cloudy
7:15 AM 50.0 °F - 48.2 °F 94% 29.79 in 10.0 mi South 8.1 mph - N/A   Overcast
7:35 AM 50.0 °F - 46.4 °F 87% 29.80 in 10.0 mi SSW 11.5 mph 17.3 mph N/A   Overcast
7:55 AM 46.4 °F 41.1 °F 42.8 °F 87% 29.81 in 10.0 mi SSW 11.5 mph 21.9 mph N/A   Overcast
8:15 AM 44.6 °F 39.7 °F 41.0 °F 87% 29.81 in 10.0 mi SW 9.2 mph - N/A   Mostly Cloudy
8:35 AM 42.8 °F 38.6 °F 41.0 °F 93% 29.81 in 10.0 mi SSW 6.9 mph - N/A   Clear
8:55 AM 44.6 °F 41.4 °F 41.0 °F 87% 29.82 in 10.0 mi SSW 5.8 mph - N/A   Mostly Cloudy
9:35 AM 44.6 °F 39.2 °F 41.0 °F 87% 29.85 in 10.0 mi SW 10.4 mph - N/A   Overcast
9:55 AM 44.6 °F 39.2 °F 39.2 °F 81% 29.85 in 10.0 mi SW 10.4 mph - N/A   Overcast
10:15 AM 44.6 °F 41.4 °F 39.2 °F 81% 29.85 in 10.0 mi South 5.8 mph - N/A   Overcast
10:35 AM 44.6 °F 42.2 °F 39.2 °F 81% 29.84 in 10.0 mi SSW 4.6 mph - N/A   Overcast
10:55 AM 44.6 °F 40.2 °F 37.4 °F 76% 29.84 in 10.0 mi SSW 8.1 mph - N/A   Overcast
11:15 AM 42.8 °F 37.0 °F 37.4 °F 81% 29.85 in 10.0 mi SSW 10.4 mph - N/A   Overcast
11:55 AM 42.8 °F 37.5 °F 39.2 °F 87% 29.85 in 10.0 mi SSW 9.2 mph - N/A   Overcast
12:15 PM 42.8 °F 37.5 °F 39.2 °F 87% 29.85 in 10.0 mi SW 9.2 mph - N/A   Overcast
12:35 PM 42.8 °F 38.0 °F 41.0 °F 93% 29.84 in 7.0 mi SW 8.1 mph - N/A   Overcast
12:55 PM 42.8 °F 38.0 °F 41.0 °F 93% 29.84 in 10.0 mi SW 8.1 mph - N/A   Overcast
1:15 PM 42.8 °F 38.0 °F 41.0 °F 93% 29.83 in 10.0 mi SW 8.1 mph - N/A   Overcast
1:35 PM 42.8 °F 38.0 °F 41.0 °F 93% 29.83 in 10.0 mi WSW 8.1 mph - N/A   Overcast
1:55 PM 42.8 °F 38.0 °F 41.0 °F 93% 29.83 in 2.5 mi WSW 8.1 mph - N/A   Overcast
2:15 PM 42.8 °F 35.8 °F 41.0 °F 93% 29.84 in 2.5 mi NW 13.8 mph 19.6 mph N/A   Light Drizzle
2:35 PM 41.0 °F 34.3 °F 39.2 °F 93% 29.85 in 5.0 mi WNW 11.5 mph - N/A   Overcast
2:55 PM 41.0 °F 33.9 °F 37.4 °F 87% 29.86 in 7.0 mi NW 12.7 mph 20.7 mph N/A   Overcast
3:15 PM 39.2 °F 31.2 °F 37.4 °F 93% 29.86 in 5.0 mi WNW 13.8 mph - N/A   Overcast
3:35 PM 39.2 °F 32.0 °F 37.4 °F 93% 29.86 in 10.0 mi NW 11.5 mph - N/A   Overcast
3:55 PM 37.4 °F 30.3 °F 37.4 °F 100% 29.87 in 10.0 mi NW 10.4 mph 18.4 mph N/A   Overcast
4:15 PM 37.4 °F 30.3 °F 35.6 °F 93% 29.89 in 10.0 mi WNW 10.4 mph - N/A   Overcast
4:35 PM 37.4 °F 29.8 °F 35.6 °F 93% 29.89 in 10.0 mi NW 11.5 mph - N/A   Overcast
4:55 PM 37.4 °F 30.3 °F 35.6 °F 93% 29.90 in 10.0 mi WNW 10.4 mph - N/A   Overcast
5:15 PM 37.4 °F 31.4 °F 35.6 °F 93% 29.91 in 10.0 mi WNW 8.1 mph - N/A   Overcast
5:35 PM 37.4 °F 29.8 °F 35.6 °F 93% 29.92 in 10.0 mi WNW 11.5 mph - N/A   Overcast
6:15 PM 35.6 °F 28.6 °F 35.6 °F 100% 29.93 in 5.0 mi WNW 9.2 mph - N/A   Overcast
6:55 PM 35.6 °F 28.0 °F 33.8 °F 93% 29.94 in 10.0 mi WNW 10.4 mph - N/A   Overcast
7:15 PM 35.6 °F 27.1 °F 33.8 °F 93% 29.94 in 10.0 mi WNW 12.7 mph 16.1 mph N/A   Overcast
7:35 PM 35.6 °F 28.6 °F 33.8 °F 93% 29.94 in 10.0 mi NW 9.2 mph - N/A   Overcast
7:55 PM 35.6 °F 27.5 °F 33.8 °F 93% 29.94 in 10.0 mi WNW 11.5 mph 16.1 mph N/A   Overcast
8:15 PM 35.6 °F 28.6 °F 33.8 °F 93% 29.94 in 10.0 mi WNW 9.2 mph - N/A   Overcast
8:35 PM 35.6 °F 27.1 °F 33.8 °F 93% 29.95 in 10.0 mi WNW 12.7 mph - N/A   Overcast
8:55 PM 35.6 °F 28.6 °F 33.8 °F 93% 29.95 in 10.0 mi WNW 9.2 mph - N/A   Overcast
9:15 PM 35.6 °F 26.6 °F 33.8 °F 93% 29.96 in 10.0 mi NW 13.8 mph - N/A   Overcast
9:35 PM 35.6 °F 28.0 °F 33.8 °F 93% 29.96 in 10.0 mi WNW 10.4 mph - N/A   Overcast
9:55 PM 35.6 °F 28.6 °F 33.8 °F 93% 29.96 in 10.0 mi WNW 9.2 mph - N/A   Overcast
10:15 PM 35.6 °F 30.7 °F 33.8 °F 93% 29.97 in 10.0 mi WNW 5.8 mph - N/A   Overcast
10:35 PM 35.6 °F 29.2 °F 33.8 °F 93% 29.97 in 10.0 mi West 8.1 mph - N/A   Overcast
10:55 PM 35.6 °F 29.2 °F 32.0 °F 87% 29.97 in 10.0 mi West 8.1 mph - N/A   Overcast
11:15 PM 35.6 °F 29.9 °F 32.0 °F 87% 29.96 in 10.0 mi WNW 6.9 mph - N/A   Overcast
11:35 PM 35.6 °F 32.8 °F 32.0 °F 87% 29.97 in 10.0 mi WNW 3.5 mph - N/A   Overcast
11:55 PM 35.6 °F 30.7 °F 32.0 °F 87% 29.96 in 10.0 mi West 5.8 mph - N/A   Overcast